ENT7944 LTAI-EPKK

Flight info

Callsign ENT7944
Flight time 2h 28m
Altitude 38000
Route EKNUD1K/18L EKNUD UQ26 BKZ DCT IBLAX DCT KOMAN DCT LARMU DCT KENIN DCT KOJOT DCT RAZEC DCT LENOV
Aircraft B738/M-SDE2E3FGHIRWXY/LB1

Departure

Time 2026-05-06 15:42
Airport Antalya International Airport (LTAI)

Arrival

Time 2026-05-06 18:11
Airport Kraków John Paul II International Airport (EPKK)
Time Latitude Longitude Altitude Speed Heading
2026-05-06 15:10 36.91439 30.80118 174 ft 0 kts
2026-05-06 15:26 36.91427 30.80117 174 ft 2 kts 14°
2026-05-06 15:26 36.91402 30.80105 174 ft 2 kts 25°
2026-05-06 15:26 36.91392 30.80094 174 ft 2 kts 42°
2026-05-06 15:26 36.91381 30.80081 173 ft 2 kts 53°
2026-05-06 15:27 36.91373 30.80065 173 ft 2 kts 62°
2026-05-06 15:27 36.91367 30.80048 172 ft 2 kts 73°
2026-05-06 15:27 36.91363 30.80030 171 ft 2 kts 83°
2026-05-06 15:27 36.91363 30.80011 170 ft 2 kts 94°
2026-05-06 15:28 36.91365 30.79993 170 ft 2 kts 104°
2026-05-06 15:28 36.91369 30.79976 170 ft 2 kts 114°
2026-05-06 15:28 36.91376 30.79959 169 ft 2 kts 124°
2026-05-06 15:28 36.91386 30.79945 169 ft 2 kts 135°
2026-05-06 15:29 36.91397 30.79932 169 ft 2 kts 145°
2026-05-06 15:29 36.91410 30.79923 168 ft 2 kts 155°
2026-05-06 15:29 36.91424 30.79916 168 ft 2 kts 166°
2026-05-06 15:29 36.91439 30.79913 168 ft 2 kts 177°
2026-05-06 15:30 36.91449 30.79913 168 ft 0 kts 183°
2026-05-06 15:30 36.91454 30.79914 168 ft 0 kts 185°
2026-05-06 15:32 36.91381 30.79906 167 ft 10 kts 183°
2026-05-06 15:32 36.91293 30.79897 166 ft 11 kts 184°
2026-05-06 15:32 36.91222 30.79891 166 ft 11 kts 184°
2026-05-06 15:32 36.91139 30.79878 165 ft 13 kts 188°
2026-05-06 15:33 36.91048 30.79863 166 ft 13 kts 189°
2026-05-06 15:33 36.90955 30.79847 168 ft 13 kts 188°
2026-05-06 15:33 36.90890 30.79773 169 ft 13 kts 229°
2026-05-06 15:33 36.90812 30.79734 171 ft 12 kts 185°
2026-05-06 15:34 36.90723 30.79724 173 ft 13 kts 185°
2026-05-06 15:34 36.90626 30.79711 174 ft 15 kts 186°
2026-05-06 15:34 36.90518 30.79697 176 ft 16 kts 185°
2026-05-06 15:34 36.90416 30.79736 177 ft 17 kts 124°
2026-05-06 15:35 36.90395 30.79836 177 ft 18 kts 97°
2026-05-06 15:36 36.90355 30.80306 179 ft 2 kts 96°
2026-05-06 15:36 36.90351 30.80349 179 ft 7 kts 96°
2026-05-06 15:36 36.90344 30.80434 179 ft 12 kts 96°
2026-05-06 15:37 36.90334 30.80557 178 ft 16 kts 96°
2026-05-06 15:37 36.90321 30.80703 177 ft 13 kts 97°
2026-05-06 15:37 36.90351 30.80799 176 ft 13 kts 17°
2026-05-06 15:37 36.90445 30.80811 176 ft 13 kts
2026-05-06 15:38 36.90540 30.80824 177 ft 14 kts
2026-05-06 15:38 36.90652 30.80838 178 ft 17 kts
2026-05-06 15:38 36.90774 30.80855 179 ft 18 kts
2026-05-06 15:38 36.90902 30.80872 180 ft 19 kts
2026-05-06 15:39 36.91040 30.80892 180 ft 20 kts
2026-05-06 15:39 36.91131 30.80926 181 ft 14 kts 57°
2026-05-06 15:39 36.91133 30.81017 180 ft 0 kts 100°
2026-05-06 15:40 36.91129 30.81071 180 ft 12 kts 94°
2026-05-06 15:40 36.91067 30.81132 180 ft 11 kts 187°
2026-05-06 15:41 36.91037 30.81128 180 ft 0 kts 186°
2026-05-06 15:41 36.91010 30.81124 180 ft 9 kts 186°
2026-05-06 15:42 36.90770 30.81090 180 ft 74 kts 186°
2026-05-06 15:42 36.89996 30.80982 171 ft 148 kts 186°
2026-05-06 15:42 36.88811 30.80820 545 ft 178 kts 186°
2026-05-06 15:42 36.87630 30.80637 1444 ft 177 kts 188°
2026-05-06 15:43 36.86407 30.80464 2325 ft 181 kts 181°
2026-05-06 15:43 36.85146 30.80624 3091 ft 190 kts 169°
2026-05-06 15:43 36.83872 30.81035 3908 ft 194 kts 166°
2026-05-06 15:43 36.82604 30.81530 4712 ft 197 kts 163°
2026-05-06 15:44 36.81198 30.81996 4993 ft 226 kts 172°
2026-05-06 15:44 36.79655 30.82394 5952 ft 229 kts 163°
2026-05-06 15:44 36.78210 30.83213 6655 ft 241 kts 156°
2026-05-06 15:44 36.76635 30.84198 7155 ft 263 kts 157°
2026-05-06 15:45 36.75005 30.85337 7870 ft 278 kts 144°
2026-05-06 15:45 36.73817 30.87253 8630 ft 293 kts 113°
2026-05-06 15:45 36.73450 30.89749 9500 ft 300 kts 95°
2026-05-06 15:45 36.73326 30.92366 10291 ft 307 kts 95°
2026-05-06 15:46 36.73140 30.95109 10622 ft 331 kts 96°
2026-05-06 15:46 36.72912 30.98041 11061 ft 349 kts 96°
2026-05-06 15:46 36.72672 31.01093 11736 ft 357 kts 96°
2026-05-06 15:46 36.72428 31.04169 12502 ft 362 kts 96°
2026-05-06 15:47 36.72370 31.07326 13247 ft 367 kts 82°
2026-05-06 15:47 36.73208 31.10297 13996 ft 369 kts 56°
2026-05-06 15:47 36.74982 31.12589 14728 ft 370 kts 31°
2026-05-06 15:47 36.77334 31.13735 15398 ft 369 kts
2026-05-06 15:48 36.79867 31.13847 16128 ft 369 kts 356°
2026-05-06 15:48 36.82478 31.13817 16711 ft 376 kts 359°
2026-05-06 15:48 36.85074 31.13700 17347 ft 377 kts 347°
2026-05-06 15:48 36.87479 31.12519 17932 ft 375 kts 323°
2026-05-06 15:49 36.89498 31.10449 18676 ft 373 kts 316°
2026-05-06 15:49 36.91462 31.08334 19145 ft 382 kts 322°
2026-05-06 15:49 36.93838 31.06789 19749 ft 389 kts 340°
2026-05-06 15:49 36.97421 31.06312 20469 ft 400 kts
2026-05-06 15:50 36.99267 31.06577 20800 ft 404 kts
2026-05-06 15:50 37.02070 31.07059 21224 ft 411 kts
2026-05-06 15:50 37.04905 31.07509 21671 ft 416 kts
2026-05-06 15:50 37.07817 31.07557 22074 ft 419 kts 351°
2026-05-06 15:51 37.10668 31.06896 22548 ft 421 kts 345°
2026-05-06 15:51 37.13514 31.06121 22938 ft 426 kts 346°
2026-05-06 15:51 37.16453 31.05397 23440 ft 429 kts 347°
2026-05-06 15:51 37.19363 31.04723 23883 ft 432 kts 347°
2026-05-06 15:52 37.22318 31.04058 24326 ft 435 kts 348°
2026-05-06 15:52 37.25297 31.03399 24750 ft 438 kts 348°
2026-05-06 15:52 37.28318 31.02739 25181 ft 440 kts 348°
2026-05-06 15:52 37.31340 31.02086 25573 ft 443 kts 348°
2026-05-06 15:53 37.34362 31.01437 25979 ft 445 kts 348°
2026-05-06 15:53 37.37419 31.00783 26367 ft 448 kts 348°
2026-05-06 15:53 37.40482 31.00130 26727 ft 451 kts 348°
2026-05-06 15:53 37.43570 30.99472 27109 ft 453 kts 348°
2026-05-06 15:54 37.46709 30.98805 27452 ft 455 kts 348°
2026-05-06 15:54 37.49818 30.98145 27809 ft 457 kts 347°
2026-05-06 15:54 37.52932 30.97484 28069 ft 460 kts 347°
2026-05-06 15:54 37.56082 30.96814 28425 ft 462 kts 347°
2026-05-06 15:55 37.59262 30.96139 28794 ft 464 kts 347°
2026-05-06 15:55 37.62449 30.95462 29126 ft 466 kts 347°
2026-05-06 15:55 37.65624 30.94788 29461 ft 468 kts 347°
2026-05-06 15:55 37.68856 30.94100 29797 ft 470 kts 347°
2026-05-06 15:56 37.72068 30.93417 30108 ft 472 kts 347°
2026-05-06 15:56 37.75303 30.92728 30412 ft 474 kts 347°
2026-05-06 15:56 37.78552 30.92036 30756 ft 475 kts 347°
2026-05-06 15:56 37.81837 30.91336 31103 ft 476 kts 347°
2026-05-06 15:57 37.85100 30.90641 31477 ft 475 kts 347°
2026-05-06 15:57 37.88318 30.89954 31840 ft 475 kts 347°
2026-05-06 15:57 37.91591 30.89255 32200 ft 475 kts 347°
2026-05-06 15:57 37.94821 30.88565 32572 ft 474 kts 347°
2026-05-06 15:58 37.98051 30.87873 32922 ft 473 kts 347°
2026-05-06 15:58 38.01258 30.87186 33286 ft 472 kts 347°
2026-05-06 15:58 38.04488 30.86494 33643 ft 471 kts 347°
2026-05-06 15:58 38.07717 30.85801 34000 ft 470 kts 347°
2026-05-06 15:59 38.10927 30.85111 34332 ft 469 kts 347°
2026-05-06 15:59 38.14147 30.84418 34660 ft 468 kts 347°
2026-05-06 15:59 38.17310 30.83738 34970 ft 467 kts 347°
2026-05-06 15:59 38.20531 30.83044 35280 ft 467 kts 347°
2026-05-06 16:00 38.23711 30.82358 35572 ft 466 kts 347°
2026-05-06 16:00 38.26878 30.81674 35859 ft 465 kts 347°
2026-05-06 16:00 38.30070 30.80985 36151 ft 465 kts 347°
2026-05-06 16:00 38.33256 30.80296 36413 ft 465 kts 347°
2026-05-06 16:01 38.36427 30.79609 36682 ft 464 kts 347°
2026-05-06 16:01 38.39584 30.78926 36923 ft 464 kts 347°
2026-05-06 16:01 38.42757 30.78238 37178 ft 463 kts 347°
2026-05-06 16:01 38.45928 30.77550 37391 ft 464 kts 347°
2026-05-06 16:02 38.49071 30.76868 37635 ft 463 kts 347°
2026-05-06 16:02 38.52273 30.76172 37845 ft 463 kts 347°
2026-05-06 16:02 38.55404 30.75491 38052 ft 464 kts 347°
2026-05-06 16:02 38.58610 30.74792 38106 ft 466 kts 347°
2026-05-06 16:03 38.64936 30.73416 38100 ft 460 kts 347°
2026-05-06 16:03 38.71204 30.72048 38101 ft 457 kts 347°
2026-05-06 16:04 38.77417 30.70687 38097 ft 457 kts 347°
2026-05-06 16:04 38.83667 30.69133 38085 ft 456 kts 342°
2026-05-06 16:05 38.89452 30.66226 38078 ft 448 kts 329°
2026-05-06 16:05 38.95881 30.62026 38074 ft 447 kts 329°
2026-05-06 16:06 39.01387 30.58457 38073 ft 446 kts 329°
2026-05-06 16:06 39.06897 30.54869 38074 ft 445 kts 329°
2026-05-06 16:07 39.12437 30.51250 38074 ft 445 kts 329°
2026-05-06 16:07 39.17938 30.47649 38074 ft 446 kts 329°
2026-05-06 16:08 39.23450 30.44033 38074 ft 446 kts 329°
2026-05-06 16:08 39.28962 30.40410 38074 ft 445 kts 329°
2026-05-06 16:09 39.34461 30.36790 38074 ft 445 kts 329°
2026-05-06 16:09 39.39957 30.33164 38074 ft 445 kts 328°
2026-05-06 16:10 39.45465 30.29524 38074 ft 445 kts 328°
2026-05-06 16:10 39.50945 30.25931 38073 ft 446 kts 330°
2026-05-06 16:11 39.56706 30.22853 38075 ft 449 kts 334°
2026-05-06 16:11 39.62476 30.19828 38073 ft 448 kts 333°
2026-05-06 16:12 39.68228 30.16777 38074 ft 448 kts 333°
2026-05-06 16:12 39.73965 30.13719 38074 ft 449 kts 333°
2026-05-06 16:13 39.79725 30.10636 38074 ft 448 kts 333°
2026-05-06 16:13 39.85444 30.07567 38074 ft 448 kts 333°
2026-05-06 16:14 39.91226 30.04457 38067 ft 448 kts 333°
2026-05-06 16:14 39.96961 30.01366 38057 ft 448 kts 333°
2026-05-06 16:15 40.02678 29.98279 38047 ft 448 kts 333°
2026-05-06 16:15 40.08429 29.95167 38047 ft 448 kts 333°
2026-05-06 16:16 40.14183 29.92047 38047 ft 448 kts 333°
2026-05-06 16:16 40.19899 29.88942 38048 ft 448 kts 333°
2026-05-06 16:17 40.25635 29.85821 38053 ft 448 kts 333°
2026-05-06 16:17 40.31368 29.82696 38054 ft 448 kts 333°
2026-05-06 16:18 40.37091 29.79569 38052 ft 448 kts 333°
2026-05-06 16:18 40.42836 29.76426 38048 ft 448 kts 333°
2026-05-06 16:19 40.48587 29.73274 38047 ft 448 kts 333°
2026-05-06 16:19 40.54303 29.70134 38054 ft 448 kts 333°
2026-05-06 16:20 40.60004 29.66997 38064 ft 448 kts 333°
2026-05-06 16:20 40.65637 29.63520 38072 ft 444 kts 326°
2026-05-06 16:21 40.70588 29.58827 38076 ft 439 kts 317°
2026-05-06 16:21 40.75361 29.53847 38073 ft 439 kts 317°
2026-05-06 16:22 40.80125 29.48867 38074 ft 438 kts 317°
2026-05-06 16:22 40.84889 29.43856 38074 ft 438 kts 317°
2026-05-06 16:23 40.89641 29.38836 38074 ft 438 kts 317°
2026-05-06 16:23 40.94371 29.33825 38074 ft 438 kts 316°
2026-05-06 16:24 40.99108 29.28793 38074 ft 438 kts 316°
2026-05-06 16:24 41.03854 29.23741 38073 ft 438 kts 316°
2026-05-06 16:25 41.08572 29.18705 38074 ft 438 kts 316°
2026-05-06 16:25 41.13312 29.13649 38074 ft 439 kts 317°
2026-05-06 16:26 41.18191 29.08821 38074 ft 440 kts 319°
2026-05-06 16:26 41.23130 29.03974 38074 ft 440 kts 319°
2026-05-06 16:27 41.28022 28.99145 38074 ft 441 kts 319°
2026-05-06 16:27 41.32904 28.94310 38074 ft 442 kts 319°
2026-05-06 16:28 41.37854 28.89394 38074 ft 443 kts 319°
2026-05-06 16:28 41.42768 28.84503 38074 ft 444 kts 320°
2026-05-06 16:29 41.47697 28.79587 38074 ft 445 kts 320°
2026-05-06 16:29 41.52629 28.74661 38074 ft 445 kts 320°
2026-05-06 16:30 41.55917 28.71372 38074 ft 445 kts 320°
2026-05-06 16:30 41.62485 28.64785 38074 ft 445 kts 320°
2026-05-06 16:31 41.67430 28.59817 38074 ft 445 kts 320°
2026-05-06 16:31 41.72359 28.54855 38074 ft 444 kts 320°
2026-05-06 16:32 41.77259 28.49911 38074 ft 445 kts 320°
2026-05-06 16:32 41.82202 28.44915 38074 ft 445 kts 320°
2026-05-06 16:33 41.87123 28.39932 38073 ft 445 kts 320°
2026-05-06 16:34 41.94475 28.32467 38074 ft 445 kts 319°
2026-05-06 16:34 41.99406 28.27458 38072 ft 445 kts 320°
2026-05-06 16:35 42.04363 28.22537 38071 ft 444 kts 320°
2026-05-06 16:35 42.09336 28.17593 38073 ft 445 kts 320°
2026-05-06 16:36 42.14288 28.12655 38074 ft 445 kts 320°
2026-05-06 16:36 42.19226 28.07720 38074 ft 444 kts 320°
2026-05-06 16:37 42.24180 28.02758 38074 ft 444 kts 320°
2026-05-06 16:37 42.29116 27.97803 38074 ft 445 kts 320°
2026-05-06 16:38 42.34056 27.92834 38074 ft 444 kts 320°
2026-05-06 16:38 42.38992 27.87860 38074 ft 445 kts 320°
2026-05-06 16:39 42.43948 27.82855 38074 ft 445 kts 320°
2026-05-06 16:39 42.48884 27.77859 38074 ft 445 kts 320°
2026-05-06 16:40 42.53790 27.72885 38074 ft 445 kts 320°
2026-05-06 16:40 42.58731 27.67864 38074 ft 445 kts 320°
2026-05-06 16:41 42.62838 27.63684 38074 ft 445 kts 320°
2026-05-06 16:41 42.68608 27.57799 38074 ft 445 kts 320°
2026-05-06 16:42 42.73536 27.52762 38073 ft 445 kts 320°
2026-05-06 16:42 42.78447 27.47731 38074 ft 445 kts 320°
2026-05-06 16:43 42.83371 27.42677 38073 ft 445 kts 320°
2026-05-06 16:43 42.88287 27.37620 38074 ft 445 kts 320°
2026-05-06 16:44 42.93208 27.32551 38074 ft 442 kts 319°
2026-05-06 16:44 42.98091 27.27516 38074 ft 438 kts 320°
2026-05-06 16:45 43.02919 27.22520 38074 ft 435 kts 320°
2026-05-06 16:45 43.07716 27.17551 38075 ft 435 kts 320°
2026-05-06 16:46 43.12542 27.12546 38073 ft 435 kts 320°
2026-05-06 16:46 43.17347 27.07547 38073 ft 436 kts 320°
2026-05-06 16:47 43.22173 27.02514 38074 ft 437 kts 320°
2026-05-06 16:47 43.26965 26.97505 38073 ft 435 kts 320°
2026-05-06 16:48 43.31750 26.92489 38075 ft 435 kts 321°
2026-05-06 16:48 43.36578 26.87419 38066 ft 437 kts 320°
2026-05-06 16:49 43.41397 26.82354 38058 ft 438 kts 320°
2026-05-06 16:49 43.46222 26.77262 38031 ft 436 kts 320°
2026-05-06 16:50 43.51002 26.72209 38010 ft 435 kts 320°
2026-05-06 16:50 43.55837 26.67094 37991 ft 439 kts 320°
2026-05-06 16:51 43.60661 26.61980 37979 ft 437 kts 320°
2026-05-06 16:51 43.65468 26.56880 37981 ft 436 kts 320°
2026-05-06 16:52 43.70250 26.51796 37983 ft 437 kts 320°
2026-05-06 16:52 43.75030 26.46694 37980 ft 436 kts 320°
2026-05-06 16:53 43.79815 26.41576 37984 ft 436 kts 320°
2026-05-06 16:53 43.84602 26.36448 37992 ft 437 kts 320°
2026-05-06 16:54 43.89407 26.31292 37992 ft 436 kts 320°
2026-05-06 16:54 43.94164 26.26172 37992 ft 435 kts 320°
2026-05-06 16:55 43.99000 26.21046 37991 ft 438 kts 323°
2026-05-06 16:55 44.04140 26.16510 37993 ft 438 kts 326°
2026-05-06 16:56 44.09255 26.12039 37993 ft 439 kts 325°
2026-05-06 16:56 44.14429 26.07474 37993 ft 439 kts 325°
2026-05-06 16:57 44.19549 26.02941 37993 ft 437 kts 324°
2026-05-06 16:57 44.24654 25.98408 37993 ft 438 kts 326°
2026-05-06 16:58 44.29782 25.93848 37994 ft 438 kts 325°
2026-05-06 16:58 44.34027 25.90069 37992 ft 437 kts 324°
2026-05-06 16:59 44.40046 25.84690 37993 ft 439 kts 325°
2026-05-06 16:59 44.45158 25.80108 37991 ft 437 kts 324°
2026-05-06 17:00 44.50236 25.75550 37994 ft 438 kts 325°
2026-05-06 17:00 44.55347 25.70955 37993 ft 438 kts 325°
2026-05-06 17:01 44.60484 25.66329 37993 ft 440 kts 325°
2026-05-06 17:01 44.65605 25.61709 37992 ft 439 kts 325°
2026-05-06 17:02 44.70697 25.57093 37991 ft 438 kts 325°
2026-05-06 17:02 44.74939 25.53247 37992 ft 436 kts 325°
2026-05-06 17:03 44.80896 25.47837 37992 ft 437 kts 325°
2026-05-06 17:03 44.86022 25.43163 37993 ft 442 kts 325°
2026-05-06 17:04 44.90267 25.39287 37990 ft 439 kts 325°
2026-05-06 17:04 44.95353 25.34639 37991 ft 435 kts 324°
2026-05-06 17:05 45.00447 25.29974 37995 ft 437 kts 324°
2026-05-06 17:05 45.06353 25.24552 37993 ft 436 kts 323°
2026-05-06 17:06 45.10592 25.20655 37991 ft 435 kts 323°
2026-05-06 17:06 45.16486 25.15226 37986 ft 436 kts 322°
2026-05-06 17:07 45.21557 25.10542 37975 ft 437 kts 323°
2026-05-06 17:07 45.25764 25.06646 37967 ft 435 kts 322°
2026-05-06 17:08 45.30792 25.01984 37955 ft 431 kts 322°
2026-05-06 17:08 45.35793 24.97331 37946 ft 433 kts 323°
2026-05-06 17:09 45.40849 24.92613 37940 ft 437 kts 323°
2026-05-06 17:09 45.46716 24.87129 37938 ft 434 kts 322°
2026-05-06 17:10 45.51772 24.82398 37939 ft 434 kts 323°
2026-05-06 17:10 45.55974 24.78456 37940 ft 436 kts 323°
2026-05-06 17:11 45.61853 24.72933 37937 ft 434 kts 323°
2026-05-06 17:11 45.66050 24.68978 37937 ft 432 kts 323°
2026-05-06 17:12 45.71059 24.64245 37940 ft 434 kts 322°
2026-05-06 17:12 45.76138 24.59438 37939 ft 435 kts 323°
2026-05-06 17:13 45.81237 24.54604 37936 ft 435 kts 323°
2026-05-06 17:13 45.86351 24.49742 37936 ft 434 kts 322°
2026-05-06 17:14 45.91446 24.44886 37939 ft 435 kts 323°
2026-05-06 17:14 45.96544 24.40019 37935 ft 434 kts 323°
2026-05-06 17:15 46.01642 24.35138 37932 ft 434 kts 323°
2026-05-06 17:15 46.06738 24.30251 37932 ft 436 kts 322°
2026-05-06 17:16 46.11816 24.25369 37931 ft 434 kts 322°
2026-05-06 17:16 46.16896 24.20478 37927 ft 433 kts 322°
2026-05-06 17:17 46.21948 24.15600 37923 ft 433 kts 322°
2026-05-06 17:17 46.27023 24.10687 37924 ft 434 kts 322°
2026-05-06 17:18 46.32089 24.05773 37924 ft 436 kts 322°
2026-05-06 17:18 46.37164 24.00840 37917 ft 434 kts 322°
2026-05-06 17:19 46.42183 23.95951 37912 ft 434 kts 322°
2026-05-06 17:19 46.47269 23.90983 37911 ft 434 kts 322°
2026-05-06 17:20 46.52284 23.86075 37913 ft 435 kts 322°
2026-05-06 17:20 46.57350 23.81107 37910 ft 432 kts 322°
2026-05-06 17:21 46.62360 23.76185 37912 ft 431 kts 322°
2026-05-06 17:21 46.67378 23.71232 37912 ft 434 kts 322°
2026-05-06 17:22 46.72360 23.66306 37913 ft 436 kts 322°
2026-05-06 17:22 46.77343 23.61381 37910 ft 433 kts 322°
2026-05-06 17:23 46.82321 23.56448 37912 ft 433 kts 322°
2026-05-06 17:23 46.87312 23.51486 37914 ft 435 kts 322°
2026-05-06 17:24 46.92296 23.46512 37911 ft 436 kts 322°
2026-05-06 17:24 46.97277 23.41528 37910 ft 435 kts 323°
2026-05-06 17:25 47.02276 23.36518 37912 ft 438 kts 324°
2026-05-06 17:25 47.07313 23.31455 37914 ft 439 kts 324°
2026-05-06 17:26 47.12324 23.26418 37921 ft 438 kts 323°
2026-05-06 17:26 47.17316 23.21385 37927 ft 437 kts 324°
2026-05-06 17:27 47.22327 23.16319 37928 ft 438 kts 324°
2026-05-06 17:27 47.27343 23.11183 37921 ft 438 kts 323°
2026-05-06 17:28 47.32251 23.05951 37916 ft 438 kts 322°
2026-05-06 17:28 47.37168 23.00711 37913 ft 438 kts 322°
2026-05-06 17:29 47.42061 22.95498 37910 ft 428 kts 322°
2026-05-06 17:29 47.46825 22.90410 37911 ft 420 kts 323°
2026-05-06 17:30 47.51495 22.85407 37913 ft 414 kts 323°
2026-05-06 17:30 47.56127 22.80423 37912 ft 411 kts 324°
2026-05-06 17:31 47.60705 22.75489 37911 ft 408 kts 324°
2026-05-06 17:31 47.65297 22.70536 37913 ft 410 kts 324°
2026-05-06 17:32 47.69912 22.65548 37912 ft 411 kts 324°
2026-05-06 17:32 47.74482 22.60599 37910 ft 410 kts 325°
2026-05-06 17:33 47.79095 22.55594 37912 ft 410 kts 324°
2026-05-06 17:33 47.83673 22.50615 37912 ft 411 kts 324°
2026-05-06 17:34 47.88277 22.45600 37912 ft 410 kts 325°
2026-05-06 17:34 47.92869 22.40582 37911 ft 410 kts 324°
2026-05-06 17:35 47.97434 22.35584 37911 ft 410 kts 324°
2026-05-06 17:35 48.02014 22.30553 37912 ft 410 kts 324°
2026-05-06 17:36 48.08915 22.22956 37912 ft 412 kts 324°
2026-05-06 17:36 48.13488 22.17905 37911 ft 412 kts 324°
2026-05-06 17:37 48.18092 22.12833 37911 ft 410 kts 325°
2026-05-06 17:37 48.22920 22.08279 37913 ft 410 kts 329°
2026-05-06 17:38 48.27759 22.03780 37912 ft 411 kts 328°
2026-05-06 17:38 48.32569 21.99253 37911 ft 410 kts 328°
2026-05-06 17:39 48.37390 21.94693 37912 ft 411 kts 328°
2026-05-06 17:39 48.42222 21.90102 37911 ft 411 kts 328°
2026-05-06 17:40 48.47008 21.85537 37910 ft 410 kts 328°
2026-05-06 17:40 48.51844 21.80915 37907 ft 410 kts 328°
2026-05-06 17:41 48.56636 21.76321 37897 ft 411 kts 328°
2026-05-06 17:41 48.61439 21.71708 37888 ft 411 kts 328°
2026-05-06 17:42 48.66258 21.67068 37884 ft 410 kts 328°
2026-05-06 17:42 48.71014 21.62476 37885 ft 410 kts 328°
2026-05-06 17:43 48.73406 21.60162 37749 ft 405 kts 328°
2026-05-06 17:43 48.75761 21.57882 37214 ft 401 kts 328°
2026-05-06 17:43 48.78108 21.55612 36634 ft 399 kts 328°
2026-05-06 17:43 48.80429 21.53363 36040 ft 397 kts 328°
2026-05-06 17:44 48.82734 21.51122 35410 ft 398 kts 328°
2026-05-06 17:44 48.85091 21.48831 34751 ft 404 kts 328°
2026-05-06 17:44 48.87439 21.46546 34250 ft 399 kts 328°
2026-05-06 17:44 48.89749 21.44296 33759 ft 393 kts 328°
2026-05-06 17:45 48.92026 21.42073 33268 ft 388 kts 328°
2026-05-06 17:45 48.94253 21.39895 32788 ft 385 kts 328°
2026-05-06 17:45 48.96537 21.37664 32294 ft 389 kts 328°
2026-05-06 17:45 48.98778 21.35471 31803 ft 385 kts 328°
2026-05-06 17:46 49.01003 21.33289 31316 ft 380 kts 327°
2026-05-06 17:46 49.03222 21.31108 30832 ft 375 kts 327°
2026-05-06 17:46 49.05380 21.28991 30361 ft 377 kts 327°
2026-05-06 17:46 49.07602 21.26807 29868 ft 377 kts 327°
2026-05-06 17:47 49.09795 21.24649 29383 ft 372 kts 326°
2026-05-06 17:47 49.11963 21.22515 28903 ft 368 kts 326°
2026-05-06 17:47 49.14086 21.20422 28433 ft 364 kts 326°
2026-05-06 17:47 49.16233 21.18304 27959 ft 368 kts 326°
2026-05-06 17:48 49.18369 21.16195 27477 ft 365 kts 326°
2026-05-06 17:48 49.20462 21.14125 27009 ft 361 kts 326°
2026-05-06 17:48 49.22566 21.12042 26538 ft 357 kts 326°
2026-05-06 17:48 49.24640 21.09987 26074 ft 352 kts 326°
2026-05-06 17:49 49.26691 21.07954 25617 ft 351 kts 326°
2026-05-06 17:49 49.28723 21.05936 25163 ft 354 kts 325°
2026-05-06 17:49 49.30774 21.03889 24699 ft 349 kts 324°
2026-05-06 17:49 49.32717 21.01671 24229 ft 344 kts 319°
2026-05-06 17:50 49.34447 20.99237 23782 ft 339 kts 311°
2026-05-06 17:50 49.35982 20.96561 23342 ft 334 kts 309°
2026-05-06 17:50 49.37508 20.93829 22905 ft 337 kts 309°
2026-05-06 17:50 49.39015 20.91143 22464 ft 336 kts 309°
2026-05-06 17:51 49.40526 20.88427 22024 ft 331 kts 308°
2026-05-06 17:51 49.41995 20.85771 21593 ft 327 kts 308°
2026-05-06 17:51 49.43459 20.83111 21162 ft 326 kts 308°
2026-05-06 17:51 49.44937 20.80415 20724 ft 330 kts 308°
2026-05-06 17:52 49.46390 20.77758 20288 ft 325 kts 308°
2026-05-06 17:52 49.47827 20.75128 19860 ft 321 kts 308°
2026-05-06 17:52 49.49261 20.72498 19431 ft 319 kts 307°
2026-05-06 17:52 49.50702 20.69845 19002 ft 324 kts 307°
2026-05-06 17:53 49.52129 20.67218 18569 ft 320 kts 307°
2026-05-06 17:53 49.53537 20.64620 18145 ft 316 kts 307°
2026-05-06 17:53 49.54945 20.62020 17722 ft 313 kts 307°
2026-05-06 17:53 49.56340 20.59439 17305 ft 319 kts 307°
2026-05-06 17:54 49.57760 20.56814 16940 ft 314 kts 307°
2026-05-06 17:54 49.59125 20.54288 16659 ft 308 kts 307°
2026-05-06 17:54 49.60500 20.51735 16268 ft 316 kts 307°
2026-05-06 17:54 49.61904 20.49131 15838 ft 312 kts 307°
2026-05-06 17:55 49.63273 20.46591 15415 ft 309 kts 307°
2026-05-06 17:55 49.64644 20.44043 14989 ft 305 kts 307°
2026-05-06 17:55 49.65981 20.41554 14572 ft 305 kts 307°
2026-05-06 17:55 49.67357 20.38989 14139 ft 308 kts 307°
2026-05-06 17:56 49.68716 20.36454 13710 ft 305 kts 307°
2026-05-06 17:56 49.70068 20.33932 13283 ft 302 kts 306°
2026-05-06 17:56 49.71388 20.31467 12868 ft 299 kts 306°
2026-05-06 17:56 49.72709 20.28995 12452 ft 297 kts 306°
2026-05-06 17:57 49.74009 20.26561 12045 ft 298 kts 306°
2026-05-06 17:57 49.75333 20.24077 11626 ft 300 kts 307°
2026-05-06 17:57 49.76658 20.21594 11207 ft 297 kts 307°
2026-05-06 17:57 49.77957 20.19180 10821 ft 294 kts 309°
2026-05-06 17:58 49.79460 20.17101 10585 ft 288 kts 320°
2026-05-06 17:58 49.81065 20.15243 10170 ft 286 kts 320°
2026-05-06 17:58 49.82643 20.13392 9834 ft 282 kts 320°
2026-05-06 17:58 49.84174 20.11593 9694 ft 271 kts 320°
2026-05-06 17:59 49.85706 20.09785 9308 ft 285 kts 320°
2026-05-06 17:59 49.87297 20.07912 8936 ft 283 kts 320°
2026-05-06 17:59 49.88841 20.06095 8582 ft 280 kts 320°
2026-05-06 17:59 49.90369 20.04293 8233 ft 277 kts 320°
2026-05-06 18:00 49.91933 20.02552 7892 ft 275 kts 329°
2026-05-06 18:00 49.93710 20.01571 7798 ft 271 kts 347°
2026-05-06 18:00 49.95574 20.01055 7917 ft 275 kts 348°
2026-05-06 18:00 49.97470 20.00514 7995 ft 279 kts 348°
2026-05-06 18:01 49.99376 20.00363 7978 ft 272 kts
2026-05-06 18:01 50.01052 20.01522 7987 ft 263 kts 41°
2026-05-06 18:01 50.02133 20.03728 7974 ft 253 kts 67°
2026-05-06 18:01 50.02627 20.06327 7801 ft 253 kts 80°
2026-05-06 18:02 50.02973 20.09029 7521 ft 256 kts 79°
2026-05-06 18:02 50.03332 20.11705 7227 ft 254 kts 79°
2026-05-06 18:02 50.03694 20.14376 6930 ft 252 kts 79°
2026-05-06 18:02 50.04051 20.17019 6644 ft 250 kts 79°
2026-05-06 18:03 50.04430 20.19659 6354 ft 248 kts 73°
2026-05-06 18:03 50.05249 20.21981 6070 ft 247 kts 45°
2026-05-06 18:03 50.06678 20.23358 5795 ft 243 kts 14°
2026-05-06 18:03 50.08369 20.23533 5522 ft 247 kts 350°
2026-05-06 18:04 50.10041 20.23005 5245 ft 244 kts 346°
2026-05-06 18:04 50.11624 20.22277 5146 ft 233 kts 330°
2026-05-06 18:04 50.12783 20.20617 5046 ft 225 kts 296°
2026-05-06 18:04 50.13166 20.18344 4812 ft 217 kts 267°
2026-05-06 18:05 50.12939 20.16038 4596 ft 210 kts 256°
2026-05-06 18:05 50.12639 20.13862 4368 ft 199 kts 256°
2026-05-06 18:05 50.12367 20.11839 4197 ft 181 kts 256°
2026-05-06 18:05 50.12120 20.10022 4066 ft 164 kts 256°
2026-05-06 18:06 50.11904 20.08430 3925 ft 137 kts 256°
2026-05-06 18:06 50.11708 20.07002 3782 ft 134 kts 256°
2026-05-06 18:06 50.11512 20.05571 3738 ft 139 kts 256°
2026-05-06 18:06 50.11313 20.04114 3565 ft 136 kts 256°
2026-05-06 18:07 50.11115 20.02670 3455 ft 137 kts 256°
2026-05-06 18:07 50.10916 20.01212 3327 ft 136 kts 256°
2026-05-06 18:07 50.10717 19.99764 3206 ft 136 kts 256°
2026-05-06 18:07 50.10520 19.98326 3086 ft 136 kts 256°
2026-05-06 18:08 50.10320 19.96874 2986 ft 135 kts 256°
2026-05-06 18:08 50.10190 19.95929 2836 ft 138 kts 256°
2026-05-06 18:08 50.09694 19.92324 2361 ft 135 kts 256°
2026-05-06 18:09 50.09494 19.90883 2184 ft 135 kts 256°
2026-05-06 18:09 50.09299 19.89471 2006 ft 135 kts 256°
2026-05-06 18:09 50.09102 19.88045 1826 ft 135 kts 256°
2026-05-06 18:09 50.08902 19.86602 1645 ft 134 kts 256°
2026-05-06 18:10 50.08706 19.85187 1469 ft 134 kts 256°
2026-05-06 18:10 50.08508 19.83767 1292 ft 134 kts 256°
2026-05-06 18:10 50.08300 19.82351 1152 ft 133 kts 256°
2026-05-06 18:10 50.08107 19.80937 960 ft 133 kts 258°
2026-05-06 18:11 50.07917 19.79539 810 ft 134 kts 258°
2026-05-06 18:11 50.07750 19.78331 801 ft 82 kts 258°
2026-05-06 18:11 50.07667 19.77732 800 ft 39 kts 258°
2026-05-06 18:11 50.07624 19.77424 800 ft 25 kts 257°
2026-05-06 18:12 50.07584 19.77161 800 ft 24 kts 256°
2026-05-06 18:12 50.07550 19.76917 800 ft 16 kts 251°
2026-05-06 18:12 50.07458 19.76867 800 ft 15 kts 174°
2026-05-06 18:12 50.07417 19.76876 800 ft 0 kts 169°
2026-05-06 18:13 50.07414 19.76876 800 ft 1 kts 169°
2026-05-06 18:13 50.07388 19.76885 800 ft 5 kts 169°
2026-05-06 18:13 50.07339 19.76903 800 ft 8 kts 157°
2026-05-06 18:13 50.07313 19.76989 800 ft 11 kts 83°
2026-05-06 18:14 50.07330 19.77122 800 ft 13 kts 79°
2026-05-06 18:14 50.07352 19.77280 800 ft 15 kts 77°
2026-05-06 18:14 50.07376 19.77449 800 ft 16 kts 78°
2026-05-06 18:14 50.07401 19.77627 800 ft 17 kts 77°
2026-05-06 18:15 50.07429 19.77819 800 ft 18 kts 77°
2026-05-06 18:15 50.07455 19.78011 800 ft 18 kts 77°
2026-05-06 18:15 50.07484 19.78212 800 ft 18 kts 79°
2026-05-06 18:15 50.07511 19.78412 800 ft 18 kts 78°
2026-05-06 18:16 50.07539 19.78613 800 ft 19 kts 79°
2026-05-06 18:16 50.07567 19.78818 800 ft 19 kts 77°
2026-05-06 18:16 50.07596 19.79032 800 ft 20 kts 78°
2026-05-06 18:16 50.07627 19.79250 800 ft 20 kts 78°
2026-05-06 18:17 50.07657 19.79464 800 ft 19 kts 78°
2026-05-06 18:17 50.07686 19.79677 800 ft 20 kts 77°
2026-05-06 18:17 50.07702 19.79854 800 ft 11 kts 115°
2026-05-06 18:17 50.07620 19.79896 800 ft 13 kts 173°
2026-05-06 18:18 50.07529 19.79930 800 ft 11 kts 148°
2026-05-06 18:18 50.07518 19.80033 800 ft 11 kts 77°
2026-05-06 18:18 50.07519 19.80113 800 ft 5 kts 128°
2026-05-06 18:18 50.07482 19.80140 800 ft 2 kts 166°
2026-05-06 18:19 50.07480 19.80140 800 ft 0 kts 166°